Joey Rosskopf

Q36.5 Pro Cycling Team, USA, 34 years

Pro Cycling Manager

Race program

Information

Joey Rosskopf is a 34 year old professional cyclist from USA (born September 5th 1989), who currently rides for Q36.5 Pro Cycling Team (UCI ProTeam). He has won 9 UCI races, and is currently ranked 814th in the UCI Ranking. Strengths: Time Trial.

AllRoadGravel

2024 2023 2022 2021 2020 2019 2018 2017 2016 2015

Human Powered Health (ProTeam) UCI Ranking: 1957 (13pts)
All Flat Hilly Mountain Time Trial
Date Pos GC Race UCI
06.02 Volta Comunitat Valenciana | 2.Pro 2022-02-06 Show more
06.02 DNF Volta Comunitat Valenciana | Overall 2022-02-06
02.10 CRO Race | 2.1 2022-10-02 Show more
02.10 63 CRO Race | Overall 2022-10-02
11.09 Tour of Britain | 2.Pro 2022-09-11 Show more
11.09 61 Tour of Britain | Overall 2022-09-11
15.08 Volta a Portugal | 2.1 2022-08-15 Show more
15.08 43 Volta a Portugal | Overall 2022-08-15
31.07 72 Circuito de Getxo | 1.1 2022-07-31Show more
25.07 35 Villafranca de Ordizia | 1.1 2022-07-25Show more
19.06 Tour de Suisse | 2.UWT 2022-06-19 Show more
19.06 DNF Tour de Suisse | Overall 2022-06-19
10.06 59 GP Kanton Aargau | 1.1 2022-06-10Show more
29.05 Boucles de la Mayenne | 2.Pro 2022-05-29 Show more
29.05 26 Boucles de la Mayenne | Overall 2022-05-295
15.05 Tour de Hongrie | 2.1 2022-05-15 Show more
15.05 18 Tour de Hongrie | Overall 2022-05-153
01.05 Tour of Hellas | 2.1 2022-05-01 Show more
01.05 31 Tour of Hellas | Overall 2022-05-01
01.05 18 Tour of Hellas | Points 2022-05-01
15.05 34 Tour de Hongrie | Points 2022-05-15
29.05 36 Boucles de la Mayenne | Points 2022-05-29
15.08 19 Volta a Portugal | Points 2022-08-15
29.05 4 Boucles de la Mayenne | Mountain 2022-05-29
15.08 45 Volta a Portugal | Mountain 2022-08-15
15.05 20 Tour de Hongrie | Mountain 2022-05-15
15.08 23 Volta a Portugal | Combination 2022-08-15
02.10 4863 CRO Race | 6th stage 2022-10-02
01.10 6866 CRO Race | 5th stage 2022-10-01
30.09 8972 CRO Race | 4th stage 2022-09-30
29.09 5469 CRO Race | 3rd stage 2022-09-29
28.09 73111 CRO Race | 2nd stage 2022-09-28
27.09 125125 CRO Race | 1st stage 2022-09-27
08.09 7761 Tour of Britain | 5th stage 2022-09-08
07.09 9263 Tour of Britain | 4th stage 2022-09-07
06.09 4844 Tour of Britain | 3rd stage 2022-09-06
05.09 5550 Tour of Britain | 2nd stage 2022-09-05
04.09 5656 Tour of Britain | 1st stage 2022-09-04
15.08 1443 Volta a Portugal | 10th stage 2022-08-15
14.08 5844 Volta a Portugal | 9th stage 2022-08-14
13.08 842 Volta a Portugal | 8th stage 2022-08-13
12.08 648 Volta a Portugal | 7th stage 2022-08-12
11.08 3952 Volta a Portugal | 6th stage 2022-08-11
10.08 5353 Volta a Portugal | 5th stage 2022-08-10
08.08 1656 Volta a Portugal | 4th stage 2022-08-08
07.08 6258 Volta a Portugal | 3rd stage 2022-08-07
06.08 364 Volta a Portugal | 2nd stage 2022-08-06
05.08 364 Volta a Portugal | 1st stage 2022-08-05
04.08 44 Volta a Portugal | Prologue 2022-08-04
16.06 DNF Tour de Suisse | 5th stage 2022-06-16
15.06 10591 Tour de Suisse | 4th stage 2022-06-15
14.06 6484 Tour de Suisse | 3rd stage 2022-06-14
13.06 9790 Tour de Suisse | 2nd stage 2022-06-13
12.06 8485 Tour de Suisse | 1st stage 2022-06-12
29.05 5926 Boucles de la Mayenne | 4th stage 2022-05-29
28.05 5425 Boucles de la Mayenne | 3rd stage 2022-05-28
27.05 4127 Boucles de la Mayenne | 2nd stage 2022-05-27
26.05 1006 Boucles de la Mayenne | 1st stage 2022-05-26
15.05 2318 Tour de Hongrie | 5th stage 2022-05-15
14.05 6212 Tour de Hongrie | 4th stage 2022-05-14
13.05 6910 Tour de Hongrie | 3rd stage 2022-05-13
12.05 3110 Tour de Hongrie | 2nd stage 2022-05-12
11.05 437 Tour de Hongrie | 1st stage 2022-05-11
01.05 231 Tour of Hellas | 5th stage 2022-05-015
30.04 1561 Tour of Hellas | 4th stage 2022-04-30
29.04 5562 Tour of Hellas | 3rd stage 2022-04-29
28.04 8171 Tour of Hellas | 2nd stage 2022-04-28
27.04 7575 Tour of Hellas | 1st stage 2022-04-27
04.02 DNF Volta Comunitat Valenciana | 3rd stage 2022-02-04
03.02 141144 Volta Comunitat Valenciana | 2nd stage 2022-02-03
02.02 116116 Volta Comunitat Valenciana | 1st stage 2022-02-02